Location: Furtei
(39.5631°N, 8.9486°E)
Time: 06:03:15
(UTC+00:00)

Daily predictions for brighter satellites

Satellite Brightness Start Highest point End
(mag) Time Altitude Azimuth Time Altitude Azimuth Time Altitude Azimuth
Lacrosse 5 1.9 16:23:35 10° NW 16:28:43 88° NE 16:33:49 10° SE
CZ-2C R/B 3.0 16:23:41 10° SSE 16:28:47 84° ENE 16:33:39 10° N
Nadezhda 4 Rocket 4.3 16:23:25 10° N 16:29:26 45° ENE 16:35:27 10° SSE
USA 267 4.2 16:23:41 10° NE 16:29:39 39° NNW 16:35:35 10° W
Cosmos 1656 4.4 16:26:58 10° N 16:31:52 31° ENE 16:36:48 10° ESE
Cosmos 2082 Rocket 4.0 16:32:09 10° ESE 16:33:55 11° E 16:35:41 10° ENE
Cosmos 1340 Rocket 3.6 16:34:50 10° NNE 16:38:26 30° ENE 16:42:02 10° SE
COSMOS 2406 4.4 16:34:21 10° SSE 16:38:49 24° E 16:43:17 10° NE
AQUARIUS 4.3 16:35:40 10° SSE 16:39:59 50° ENE 16:44:21 10° N
ATLAS CENTAUR R/B 3.6 16:32:55 10° SSW 16:45:56 71° SE 16:50:58 10° NE
USA 276 4.2 16:44:22 10° NNW 16:46:14 15° NNE 16:47:51 11° NE
Cosmos 1933 4.3 16:42:56 10° SSE 16:46:24 27° E 16:49:51 10° NNE
SJ 16-02 1.7 16:47:54 10° NNW 16:52:16 71° WSW 16:56:37 10° S
Cosmos 2034 Rocket 3.9 16:46:54 10° S 16:53:02 77° E 16:59:12 10° N
Cosmos 1500 Rocket 3.8 16:52:05 10° N 16:56:24 46° E 17:00:38 10° SSE
CORIOLIS 4.1 16:52:12 10° SSE 16:57:34 80° ENE 17:03:00 10° N
CZ-2D R/B 3.4 16:55:33 10° SSE 16:59:14 47° ENE 17:02:57 10° N
USA 234 3.4 16:54:41 10° SE 17:01:14 81° SW 17:07:48 10° NW
NOSS 3-1 (A) 4.4 16:56:28 10° NNW 17:03:39 44° NE 17:11:53 10° ESE
Cosmos 1842 Rocket 4.1 17:00:36 10° SSW 17:04:58 61° W 17:09:24 10° N
Cosmos 1833 Rocket 2.8 17:00:58 10° S 17:06:23 53° ESE 17:11:52 10° NNE
Meteor 1-20 Rocket 4.4 17:00:57 10° N 17:06:41 56° ENE 17:12:24 10° SSE
NOSS 3-1 (C) 4.1 16:59:19 10° NNW 17:06:58 68° NE 17:15:47 10° SE
Cosmos 1805 Rocket 4.1 17:03:14 10° N 17:07:13 34° ENE 17:11:10 10° SE
PSLV R/B 3.5 17:07:30 10° SSE 17:11:09 82° ENE 17:14:51 10° N
CZ-4B R/B 3.4 17:06:12 10° SE 17:11:27 48° ENE 17:16:36 10° N
Cosmos 1939 Rocket 4.1 17:10:48 10° S 17:14:46 46° W 17:18:44 10° NNW
SMAP 3.8 17:10:55 10° S 17:15:28 56° W 17:20:04 10° NNW
ARGOS 3.5 17:10:42 10° SE 17:15:44 41° ENE 17:20:48 10° N
H-2A R/B 2.0 17:12:07 10° SSE 17:17:21 71° ENE 17:22:29 10° N
Sich 1 3.5 17:14:28 10° N 17:18:25 35° ENE 17:22:21 10° SE
Cosmos 1634 Rocket 4.1 17:12:28 10° SSE 17:18:35 56° E 17:24:46 10° NNE
GPS 2-04 Rocket1 3.9 17:14:54 10° SW 17:18:36 33° SSE 17:20:42 20° ESE
Cosmos 1898 Rocket 3.7 17:17:09 10° N 17:22:14 47° ENE 17:27:14 10° SE
COSMOS 2455 3.3 17:17:14 10° S 17:22:43 39° ESE 17:25:52 23° ENE
MOS 1-B Rocket 4.0 17:17:26 10° NNE 17:23:16 82° ESE 17:29:52 10° SSW
Cosmos 2221 4.4 17:21:00 10° SW 17:24:45 30° WNW 17:28:32 10° NNW
Cosmos 468 Rocket 3.9 17:19:40 10° SSW 17:24:48 87° WNW 17:30:01 10° NNE
Landsat 5 3.5 17:27:18 19° NNE 17:30:08 53° E 17:34:04 10° S
Cosmos 44 3.0 17:25:49 10° NNW 17:30:34 84° ENE 17:35:00 10° SSE
Cosmos 540 Rocket 3.4 17:28:26 10° S 17:33:28 66° ESE 17:37:03 20° NNE
SL-08 RB Rocket 4.1 17:29:26 10° SE 17:33:45 39° ENE 17:38:04 10° N
COSMO-SKYMED 1 2.5 17:29:41 10° NNE 17:34:04 85° ESE 17:38:23 10° SSW
deb Chang Zheng 4 3.4 17:29:52 10° SSE 17:34:08 73° ENE 17:38:27 10° N
Cosmos 2026 Rocket 3.8 17:30:47 10° N 17:36:57 73° E 17:43:00 10° SSE
SJ-11-01 4.2 17:32:56 10° SSE 17:37:38 65° ENE 17:42:21 10° N
Okean O Rocket 1.5 17:34:01 10° SSE 17:38:23 66° ENE 17:42:49 10° N
Cosmos 2195 Rocket 4.4 17:32:53 10° N 17:39:04 89° ENE 17:45:16 10° S
CZ-2C R/B 2.5 17:35:07 10° NNE 17:40:21 89° W 17:45:31 10° SSW
ISS -1.1 17:44:26 10° NNW 17:44:55 11° N 17:44:55 11° N
Meteor 1-25 Rocket 4.4 17:40:27 10° NNW 17:46:00 74° W 17:51:34 10° S
Meteor 2-21 4.3 17:42:21 10° N 17:48:28 80° E 17:54:31 10° S
CZ-4C R/B 3.8 17:42:52 10° NNW 17:49:00 29° NE 17:49:48 28° NE
Meteor 1-5 Rocket 4.4 17:51:49 10° N 17:57:38 51° ENE 18:03:22 10° SSE
GEOS 3 Rocket 3.5 17:56:54 36° SE 17:59:03 69° NE 18:04:13 10° NNW
Cosmos 1782 3.4 17:56:10 10° SSW 18:00:05 56° W 18:02:36 21° N
Cosmos 2084 3.6 17:55:52 10° NNW 17:59:42 57° NNE 17:59:42 57° NNE
CZ-4C R/B 3.8 18:01:15 40° SSW 18:01:15 40° SSW 18:03:28 10° SSW
Cosmos 2369 3.7 17:55:59 10° NNW 18:01:38 55° ENE 18:02:23 51° E
DMSP B5D2-2 3.9 18:06:38 60° ENE 18:07:11 65° ESE 18:12:21 10° S
Cosmos 841 Rocket 3.5 18:02:53 10° SSW 18:08:04 78° WNW 18:10:09 37° N
Cosmos 1697 Rocket 2.6 18:04:12 10° NNW 18:09:50 84° WSW 18:15:26 10° SSE
Cosmos 1937 Rocket 3.4 18:04:46 10° NNW 18:10:07 89° WSW 18:15:26 10° SSE
Cosmos 1812 3.3 18:07:56 10° SSW 18:11:00 53° SSW 18:11:00 53° SSW
Cosmos 1980 Rocket 2.6 18:06:20 10° NNW 18:10:40 44° NNE 18:10:40 44° NNE
IRAS Rocket 4.1 18:13:12 65° E 18:13:24 65° ESE 18:18:52 10° S
Spot 2 4.3 18:11:03 10° SSE 18:16:05 81° ENE 18:21:16 10° NNW
Cosmos 2082 Rocket 2.1 18:11:26 10° SSW 18:17:08 87° WNW 18:18:33 53° NNE
Meteor 2-15 4.3 18:12:22 10° S 18:18:15 63° E 18:18:15 63° E
Cosmos 1151 Rocket 3.3 18:16:53 10° SSW 18:20:53 63° WSW 18:20:53 63° WSW
COSMOS 2406 4.1 18:17:15 10° SW 18:22:46 47° WNW 18:26:02 23° N
Meteor 2-6 Rocket 4.1 18:18:44 10° S 18:24:35 84° E 18:25:12 72° NNE
USA 229 DEB 4.1 18:23:59 10° NW 18:31:26 73° WSW 18:37:48 17° SSE
USA 229 4.1 18:24:05 10° NW 18:31:31 74° WSW 18:37:41 18° SSE
Cosmos 1570 Rocket 4.4 18:30:38 10° SSW 18:34:44 56° SSW 18:34:44 56° SSW
Meteor 2-8 Rocket 4.5 18:30:18 10° SSW 18:36:25 77° W 18:38:41 42° N
COSMOS 2455 4.1 19:03:13 10° WSW 19:08:39 35° NW 19:09:04 34° NW
CZ-4C R/B 3.9 19:30:45 10° NW 19:35:02 40° NW 19:35:02 40° NW
